User: anonymous
Location: Vancouver
(49.2500°N, 123.1330°W)
Time: 08:41:17
(UTC-07:00)
Language:

BREEZE-M DEB (TANK) - Orbit

View from above orbital plane
View from above orbital plane
View from above satellite
View from above satellite

Ground track
Ground track

The orbit data is extracted from the following two-line orbital elements,

1 27821U 03024B   14232.40164774  .00003886  00000-0  41012-3 0  4625
2 27821 049.5631 109.2908 5016621 333.0671 023.1481 05.62790500221595
Epoch (UTC): 20 August 2014 09:38:22
Eccentricity: 0.5016621
inclination: 49.5631°
perigee height: 275 km
apogee height: 13670 km
right ascension of ascending node: 109.2908°
argument of perigee: 333.0671°
revolutions per day: 5.62790500
mean anomaly at epoch: 23.1481°
orbit number at epoch: 22159

The dashed part of the orbit path shows where the satellite is in the earth's shadow,  

DLR